,,,PA_Meas_PMT16A,,PR_Meas_QMR101_102,,RH_Meas_QMH101,,SR_Meas_QMS101,,TA_Meas_QMH101,,GenWind,,GenWind,
date,time,status,PA,status,PR,status,RH,status,SR,status,TA,status,DirAvg,status,SpdAvg,
2010-07-10, 00:00:04,VALID,1005.95,VALID,0,VALID,101.762,VALID,0.100563,VALID,23.6646,VALID,358,VALID,0,
2010-07-10, 00:01:04,VALID,1005.97,VALID,0,VALID,101.762,VALID,0.100563,VALID,23.6628,VALID,358,VALID,0,
2010-07-10, 00:02:04,VALID,1005.97,VALID,0,VALID,101.769,VALID,0,VALID,23.6434,VALID,358,VALID,0,
2010-07-10, 00:03:04,VALID,1005.95,VALID,0,VALID,101.723,VALID,0,VALID,23.6628,VALID,358,VALID,0,
2010-07-10, 00:04:04,VALID,1005.91,VALID,0,VALID,101.716,VALID,0.100563,VALID,23.7017,VALID,358,VALID,0,
2010-07-10, 00:05:04,VALID,1005.92,VALID,0,VALID,101.708,VALID,0.100563,VALID,23.7017,VALID,358,VALID,0,
2010-07-10, 00:06:04,VALID,1005.91,VALID,0,VALID,101.754,VALID,0,VALID,23.6823,VALID,358,VALID,0,
2010-07-10, 00:07:04,VALID,1005.88,VALID,0,VALID,101.746,VALID,0,VALID,23.6434,VALID,358,VALID,0,
2010-07-10, 00:08:04,VALID,1005.89,VALID,0,VALID,101.762,VALID,0.100563,VALID,23.6434,VALID,358,VALID,0,
2010-07-10, 00:09:04,VALID,1005.88,VALID,0,VALID,101.777,VALID,0.100563,VALID,23.6221,VALID,358,VALID,0,
2010-07-10, 00:10:04,VALID,1005.88,VALID,0,VALID,101.8,VALID,0.100563,VALID,23.5832,VALID,358,VALID,0,
2010-07-10, 00:11:04,VALID,1005.85,VALID,0,VALID,101.769,VALID,0,VALID,23.6044,VALID,358,VALID,0,
2010-07-10, 00:12:04,VALID,1005.85,VALID,0,VALID,101.746,VALID,0,VALID,23.5832,VALID,358,VALID,0,
2010-07-10, 00:13:04,VALID,1005.84,VALID,0,VALID,101.746,VALID,0,VALID,23.6239,VALID,358,VALID,0,
2010-07-10, 00:14:04,VALID,1005.81,VALID,0,VALID,101.746,VALID,0,VALID,23.6239,VALID,358,VALID,0,
2010-07-10, 00:15:04,VALID,1005.82,VALID,0,VALID,101.746,VALID,0,VALID,23.6239,VALID,358,VALID,0,
2010-07-10, 00:16:04,VALID,1005.82,VALID,0,VALID,101.731,VALID,0,VALID,23.6239,VALID,358,VALID,0,
2010-07-10, 00:17:04,VALID,1005.8,VALID,0,VALID,101.723,VALID,0,VALID,23.6239,VALID,358,VALID,0,
2010-07-10, 00:18:04,VALID,1005.79,VALID,0,VALID,101.693,VALID,0,VALID,23.6434,VALID,358,VALID,0,
2010-07-10, 00:19:04,VALID,1005.81,VALID,0,VALID,101.685,VALID,0.100563,VALID,23.6841,VALID,358,VALID,0,
2010-07-10, 00:20:04,VALID,1005.82,VALID,0,VALID,101.693,VALID,0,VALID,23.6628,VALID,358,VALID,0,
2010-07-10, 00:21:04,VALID,1005.84,VALID,0,VALID,101.701,VALID,0,VALID,23.6823,VALID,358,VALID,0,
2010-07-10, 00:22:04,VALID,1005.84,VALID,0,VALID,101.693,VALID,0,VALID,23.6628,VALID,358,VALID,0,
2010-07-10, 00:23:04,VALID,1005.85,VALID,0,VALID,101.708,VALID,0,VALID,23.6628,VALID,358,VALID,0,
2010-07-10, 00:24:04,VALID,1005.85,VALID,0,VALID,101.708,VALID,0.100563,VALID,23.6628,VALID,358,VALID,0,
2010-07-10, 00:25:04,VALID,1005.83,VALID,0,VALID,101.723,VALID,0,VALID,23.6434,VALID,358,VALID,0,
2010-07-10, 00:26:04,VALID,1005.86,VALID,0,VALID,101.708,VALID,0.100563,VALID,23.6628,VALID,358,VALID,0,
2010-07-10, 00:27:04,VALID,1005.83,VALID,0,VALID,101.678,VALID,0,VALID,23.6628,VALID,358,VALID,0,
2010-07-10, 00:28:04,VALID,1005.83,VALID,0,VALID,101.662,VALID,0.100563,VALID,23.6805,VALID,358,VALID,0,
2010-07-10, 00:29:04,VALID,1005.77,VALID,0,VALID,101.655,VALID,0,VALID,23.7212,VALID,358,VALID,0,
2010-07-10, 00:30:04,VALID,1005.79,VALID,0,VALID,101.67,VALID,0,VALID,23.7425,VALID,358,VALID,0,
2010-07-10, 00:31:04,VALID,1005.76,VALID,0,VALID,101.67,VALID,0,VALID,23.7,VALID,358,VALID,0,
2010-07-10, 00:32:04,VALID,1005.76,VALID,0,VALID,101.678,VALID,0,VALID,23.7017,VALID,358,VALID,0,
2010-07-10, 00:33:04,VALID,1005.74,VALID,0,VALID,101.678,VALID,0.100563,VALID,23.7017,VALID,358,VALID,0,
2010-07-10, 00:34:04,VALID,1005.71,VALID,0,VALID,101.67,VALID,0,VALID,23.7017,VALID,358,VALID,0,
2010-07-10, 00:35:04,VALID,1005.69,VALID,0,VALID,101.64,VALID,0,VALID,23.7212,VALID,358,VALID,0,
2010-07-10, 00:36:04,VALID,1005.62,VALID,0,VALID,101.624,VALID,0,VALID,23.7425,VALID,358,VALID,0,
2010-07-10, 00:37:04,VALID,1005.61,VALID,0,VALID,101.655,VALID,0,VALID,23.7212,VALID,358,VALID,0,
2010-07-10, 00:38:04,VALID,1005.57,VALID,0,VALID,101.678,VALID,0,VALID,23.6823,VALID,358,VALID,0,
2010-07-10, 00:39:04,VALID,1005.55,VALID,0,VALID,101.701,VALID,0,VALID,23.6823,VALID,358,VALID,0,
2010-07-10, 00:40:04,VALID,1005.48,VALID,0,VALID,101.685,VALID,0.100563,VALID,23.6628,VALID,358,VALID,0,
2010-07-10, 00:41:04,VALID,1005.49,VALID,0,VALID,101.678,VALID,0,VALID,23.6628,VALID,358,VALID,0,
2010-07-10, 00:42:04,VALID,1005.48,VALID,0,VALID,101.655,VALID,0,VALID,23.6841,VALID,358,VALID,0,
2010-07-10, 00:43:04,VALID,1005.46,VALID,0,VALID,101.647,VALID,0,VALID,23.7035,VALID,358,VALID,0,
2010-07-10, 00:44:04,VALID,1005.44,VALID,0,VALID,101.655,VALID,0,VALID,23.6823,VALID,358,VALID,0,
2010-07-10, 00:45:04,VALID,1005.46,VALID,0,VALID,101.678,VALID,0.100563,VALID,23.6823,VALID,358,VALID,0,
2010-07-10, 00:46:04,VALID,1005.45,VALID,0,VALID,101.647,VALID,0,VALID,23.6628,VALID,358,VALID,0,
2010-07-10, 00:47:04,VALID,1005.46,VALID,0,VALID,101.64,VALID,0,VALID,23.6823,VALID,358,VALID,0,
2010-07-10, 00:48:04,VALID,1005.43,VALID,0,VALID,101.64,VALID,0,VALID,23.6823,VALID,358,VALID,0,
2010-07-10, 00:49:04,VALID,1005.42,VALID,0,VALID,101.632,VALID,0.100563,VALID,23.7017,VALID,358,VALID,0,
2010-07-10, 00:50:04,VALID,1005.44,VALID,0,VALID,101.617,VALID,0,VALID,23.7017,VALID,358,VALID,0,
2010-07-10, 00:51:04,VALID,1005.43,VALID,0,VALID,101.609,VALID,0.100563,VALID,23.7212,VALID,358,VALID,0,
2010-07-10, 00:52:04,VALID,1005.42,VALID,0,VALID,101.563,VALID,0,VALID,23.7407,VALID,358,VALID,0,
2010-07-10, 00:53:05,VALID,1005.45,VALID,0,VALID,101.571,VALID,0.100563,VALID,23.7601,VALID,358,VALID,0,
2010-07-10, 00:54:05,VALID,1005.44,VALID,0,VALID,101.556,VALID,0,VALID,23.8009,VALID,358,VALID,0,
2010-07-10, 00:55:05,VALID,1005.44,VALID,0,VALID,101.556,VALID,0,VALID,23.7991,VALID,358,VALID,0,
2010-07-10, 00:56:05,VALID,1005.42,VALID,0,VALID,101.548,VALID,0,VALID,23.7991,VALID,358,VALID,0,
2010-07-10, 00:57:05,VALID,1005.43,VALID,0,VALID,101.518,VALID,0,VALID,23.8185,VALID,358,VALID,0,
2010-07-10, 00:58:05,VALID,1005.45,VALID,0,VALID,101.479,VALID,0,VALID,23.8575,VALID,358,VALID,0,
2010-07-10, 00:59:05,VALID,1005.47,VALID,0,VALID,101.487,VALID,0.100563,VALID,23.8769,VALID,358,VALID,0,
2010-07-10, 01:00:05,VALID,1005.45,VALID,0,VALID,101.479,VALID,0.100563,VALID,23.8964,VALID,358,VALID,0,
2010-07-10, 01:01:05,VALID,1005.46,VALID,0,VALID,101.456,VALID,0,VALID,23.9371,VALID,358,VALID,0,
2010-07-10, 01:02:05,VALID,1005.45,VALID,0,VALID,101.487,VALID,0,VALID,23.9177,VALID,358,VALID,0,
2010-07-10, 01:03:05,VALID,1005.45,VALID,0,VALID,101.51,VALID,0,VALID,23.8982,VALID,358,VALID,0,
2010-07-10, 01:04:05,VALID,1005.43,VALID,0,VALID,101.533,VALID,0,VALID,23.8593,VALID,358,VALID,0,
2010-07-10, 01:05:05,VALID,1005.41,VALID,0,VALID,101.525,VALID,0,VALID,23.8398,VALID,358,VALID,0,
2010-07-10, 01:06:05,VALID,1005.4,VALID,0,VALID,101.548,VALID,0,VALID,23.8203,VALID,358,VALID,0,
2010-07-10, 01:07:05,VALID,1005.41,VALID,0,VALID,101.548,VALID,0,VALID,23.8203,VALID,358,VALID,0,
2010-07-10, 01:08:05,VALID,1005.41,VALID,0,VALID,101.518,VALID,0,VALID,23.8203,VALID,358,VALID,0,
2010-07-10, 01:09:05,VALID,1005.37,VALID,0,VALID,101.54,VALID,0,VALID,23.7796,VALID,358,VALID,0,
2010-07-10, 01:10:05,VALID,1005.38,VALID,0,VALID,101.533,VALID,0,VALID,23.8221,VALID,358,VALID,0,
2010-07-10, 01:11:05,VALID,1005.37,VALID,0,VALID,101.525,VALID,0,VALID,23.8203,VALID,358,VALID,0,
2010-07-10, 01:12:05,VALID,1005.39,VALID,0,VALID,101.495,VALID,0,VALID,23.8203,VALID,358,VALID,0,
2010-07-10, 01:13:05,VALID,1005.36,VALID,0,VALID,101.495,VALID,0,VALID,23.8398,VALID,358,VALID,0,
2010-07-10, 01:14:05,VALID,1005.36,VALID,0,VALID,101.518,VALID,0,VALID,23.8185,VALID,358,VALID,0,
2010-07-10, 01:15:05,VALID,1005.33,VALID,0,VALID,101.533,VALID,0,VALID,23.7991,VALID,358,VALID,0,
2010-07-10, 01:16:05,VALID,1005.32,VALID,0,VALID,101.533,VALID,0.100563,VALID,23.8185,VALID,357,VALID,0,
2010-07-10, 01:17:05,VALID,1005.29,VALID,0,VALID,101.502,VALID,0.100563,VALID,23.838,VALID,354,VALID,0.971094,
2010-07-10, 01:18:05,VALID,1005.26,VALID,0,VALID,101.502,VALID,0,VALID,23.8787,VALID,351,VALID,0.600781,
2010-07-10, 01:19:05,VALID,1005.25,VALID,0,VALID,101.518,VALID,0.100563,VALID,23.838,VALID,351,VALID,0.801953,
2010-07-10, 01:20:05,VALID,1005.21,VALID,0,VALID,101.487,VALID,0,VALID,23.838,VALID,354,VALID,0.609375,
2010-07-10, 01:21:05,VALID,1005.19,VALID,0,VALID,101.525,VALID,0,VALID,23.8185,VALID,355,VALID,0.374219,
2010-07-10, 01:22:05,VALID,1005.2,VALID,0,VALID,101.518,VALID,0,VALID,23.7973,VALID,355,VALID,0.040625,
2010-07-10, 01:23:05,VALID,1005.18,VALID,0,VALID,101.525,VALID,0.100563,VALID,23.8185,VALID,355,VALID,0,
2010-07-10, 01:24:05,VALID,1005.18,VALID,0,VALID,101.54,VALID,0,VALID,23.8398,VALID,354,VALID,0.417578,
2010-07-10, 01:25:05,VALID,1005.16,VALID,0,VALID,101.548,VALID,0.100563,VALID,23.7991,VALID,354,VALID,0.0566406,
2010-07-10, 01:26:05,VALID,1005.17,VALID,0,VALID,101.571,VALID,0,VALID,23.7778,VALID,354,VALID,0,
2010-07-10, 01:27:05,VALID,1005.16,VALID,0,VALID,101.548,VALID,0,VALID,23.7796,VALID,354,VALID,0,
2010-07-10, 01:28:05,VALID,1005.14,VALID,0,VALID,101.571,VALID,0.100563,VALID,23.7796,VALID,354,VALID,0,
2010-07-10, 01:29:05,VALID,1005.11,VALID,0,VALID,101.571,VALID,0,VALID,23.7796,VALID,354,VALID,0,
2010-07-10, 01:30:05,VALID,1005.11,VALID,0,VALID,101.609,VALID,0,VALID,23.7814,VALID,354,VALID,0,
2010-07-10, 01:31:05,VALID,1005.1,VALID,0,VALID,101.624,VALID,0,VALID,23.7212,VALID,355,VALID,0,
2010-07-10, 01:32:05,VALID,1005.1,VALID,0,VALID,101.617,VALID,0,VALID,23.723,VALID,355,VALID,0,
2010-07-10, 01:33:05,VALID,1005.08,VALID,0,VALID,101.647,VALID,0,VALID,23.6805,VALID,355,VALID,0,
2010-07-10, 01:34:05,VALID,1005.08,VALID,0,VALID,101.647,VALID,0,VALID,23.7017,VALID,355,VALID,0,
2010-07-10, 01:35:05,VALID,1005.03,VALID,0,VALID,101.655,VALID,0.100563,VALID,23.6823,VALID,355,VALID,0,
2010-07-10, 01:36:05,VALID,1005.06,VALID,0,VALID,101.693,VALID,0,VALID,23.6628,VALID,355,VALID,0,
2010-07-10, 01:37:05,VALID,1005,VALID,0,VALID,101.685,VALID,0.100563,VALID,23.6628,VALID,355,VALID,0,
2010-07-10, 01:38:05,VALID,1005,VALID,0,VALID,101.701,VALID,0,VALID,23.6239,VALID,355,VALID,0,
2010-07-10, 01:39:05,VALID,1004.97,VALID,0,VALID,101.716,VALID,0,VALID,23.6239,VALID,355,VALID,0,
2010-07-10, 01:40:05,VALID,1004.94,VALID,0,VALID,101.731,VALID,0,VALID,23.6044,VALID,355,VALID,0,
2010-07-10, 01:41:05,VALID,1004.93,VALID,0,VALID,101.769,VALID,0,VALID,23.585,VALID,355,VALID,0,
2010-07-10, 01:42:05,VALID,1004.93,VALID,0,VALID,101.777,VALID,0.100563,VALID,23.585,VALID,355,VALID,0,
2010-07-10, 01:43:05,VALID,1004.92,VALID,0,VALID,101.762,VALID,0,VALID,23.6062,VALID,355,VALID,0,
2010-07-10, 01:44:05,VALID,1004.89,VALID,0,VALID,101.777,VALID,0,VALID,23.5868,VALID,358,VALID,0,
2010-07-10, 01:45:05,VALID,1004.87,VALID,0,VALID,101.785,VALID,0,VALID,23.5655,VALID,358,VALID,0,
2010-07-10, 01:46:05,VALID,1004.82,VALID,0,VALID,101.785,VALID,0,VALID,23.5673,VALID,358,VALID,0,
2010-07-10, 01:47:05,VALID,1004.85,VALID,0,VALID,101.807,VALID,0,VALID,23.5673,VALID,358,VALID,0,
2010-07-10, 01:48:05,VALID,1004.83,VALID,0,VALID,101.815,VALID,0,VALID,23.5885,VALID,358,VALID,0,
2010-07-10, 01:49:05,VALID,1004.84,VALID,0,VALID,101.8,VALID,0,VALID,23.5478,VALID,358,VALID,0,
2010-07-10, 01:50:05,VALID,1004.8,VALID,0,VALID,101.815,VALID,0,VALID,23.5284,VALID,358,VALID,0,
2010-07-10, 01:51:05,VALID,1004.79,VALID,0,VALID,101.815,VALID,0,VALID,23.5284,VALID,358,VALID,0,
2010-07-10, 01:52:05,VALID,1004.76,VALID,0,VALID,101.83,VALID,0,VALID,23.5089,VALID,358,VALID,0,
2010-07-10, 01:53:05,VALID,1004.79,VALID,0,VALID,101.846,VALID,0,VALID,23.4894,VALID,358,VALID,0,
2010-07-10, 01:54:05,VALID,1004.76,VALID,0,VALID,101.868,VALID,0,VALID,23.4894,VALID,358,VALID,0,
2010-07-10, 01:55:05,VALID,1004.73,VALID,0,VALID,101.891,VALID,0,VALID,23.47,VALID,358,VALID,0,
2010-07-10, 01:56:05,VALID,1004.73,VALID,0,VALID,101.899,VALID,0,VALID,23.4505,VALID,358,VALID,0,
2010-07-10, 01:57:05,VALID,1004.72,VALID,0,VALID,101.899,VALID,0,VALID,23.4098,VALID,358,VALID,0,
2010-07-10, 01:58:05,VALID,1004.74,VALID,0,VALID,101.914,VALID,0,VALID,23.4311,VALID,358,VALID,0,
2010-07-10, 01:59:05,VALID,1004.71,VALID,0,VALID,101.899,VALID,0,VALID,23.4311,VALID,358,VALID,0,
2010-07-10, 02:00:05,VALID,1004.71,VALID,0,VALID,101.914,VALID,0,VALID,23.4311,VALID,358,VALID,0,
2010-07-10, 02:01:05,VALID,1004.73,VALID,0,VALID,101.907,VALID,0,VALID,23.4293,VALID,358,VALID,0,
2010-07-10, 02:02:05,VALID,1004.68,VALID,0,VALID,101.884,VALID,0.100563,VALID,23.408,VALID,358,VALID,0,
2010-07-10, 02:03:05,VALID,1004.69,VALID,0,VALID,101.907,VALID,0.100563,VALID,23.408,VALID,358,VALID,0,
2010-07-10, 02:04:05,VALID,1004.7,VALID,0,VALID,101.876,VALID,0,VALID,23.4293,VALID,358,VALID,0,
2010-07-10, 02:05:05,VALID,1004.66,VALID,0,VALID,101.914,VALID,0.100563,VALID,23.4293,VALID,4,VALID,0,
2010-07-10, 02:06:05,VALID,1004.66,VALID,0,VALID,101.914,VALID,0,VALID,23.4293,VALID,4,VALID,0,
2010-07-10, 02:07:05,VALID,1004.65,VALID,0,VALID,101.907,VALID,0.100563,VALID,23.4098,VALID,4,VALID,0,
2010-07-10, 02:08:05,VALID,1004.66,VALID,0,VALID,101.884,VALID,0,VALID,23.408,VALID,4,VALID,0,
2010-07-10, 02:09:05,VALID,1004.66,VALID,0,VALID,101.876,VALID,0,VALID,23.4487,VALID,4,VALID,0,
2010-07-10, 02:10:05,VALID,1004.67,VALID,0,VALID,101.868,VALID,0,VALID,23.4487,VALID,4,VALID,0,
2010-07-10, 02:11:05,VALID,1004.61,VALID,0,VALID,101.868,VALID,0.100563,VALID,23.4275,VALID,4,VALID,0,
2010-07-10, 02:12:05,VALID,1004.64,VALID,0,VALID,101.876,VALID,0.100563,VALID,23.4487,VALID,4,VALID,0,
2010-07-10, 02:13:05,VALID,1004.63,VALID,0,VALID,101.922,VALID,0,VALID,23.3904,VALID,4,VALID,0,
2010-07-10, 02:14:05,VALID,1004.62,VALID,0,VALID,101.96,VALID,0,VALID,23.3302,VALID,4,VALID,0,
2010-07-10, 02:15:05,VALID,1004.63,VALID,0,VALID,101.968,VALID,0.100563,VALID,23.332,VALID,4,VALID,0,
2010-07-10, 02:16:05,VALID,1004.62,VALID,0,VALID,101.983,VALID,0.100563,VALID,23.3125,VALID,4,VALID,0,
2010-07-10, 02:17:05,VALID,1004.61,VALID,0,VALID,101.991,VALID,0,VALID,23.2736,VALID,4,VALID,0,
2010-07-10, 02:18:05,VALID,1004.61,VALID,0,VALID,102.006,VALID,0.100563,VALID,23.2524,VALID,4,VALID,0,
2010-07-10, 02:19:05,VALID,1004.59,VALID,0,VALID,101.998,VALID,0,VALID,23.2541,VALID,4,VALID,0,
2010-07-10, 02:20:05,VALID,1004.61,VALID,0,VALID,101.983,VALID,0.100563,VALID,23.2736,VALID,4,VALID,0,
2010-07-10, 02:21:05,VALID,1004.57,VALID,0,VALID,101.991,VALID,0.100563,VALID,23.2541,VALID,3,VALID,0,
2010-07-10, 02:22:05,VALID,1004.58,VALID,0,VALID,102.013,VALID,0,VALID,23.2347,VALID,3,VALID,0,
2010-07-10, 02:23:05,VALID,1004.61,VALID,0,VALID,101.998,VALID,0,VALID,23.2152,VALID,3,VALID,0,
2010-07-10, 02:24:05,VALID,1004.57,VALID,0,VALID,102.021,VALID,0,VALID,23.1957,VALID,3,VALID,0,
2010-07-10, 02:25:05,VALID,1004.56,VALID,0,VALID,102.013,VALID,0,VALID,23.1957,VALID,3,VALID,0,
2010-07-10, 02:26:05,VALID,1004.55,VALID,0,VALID,102.013,VALID,0.100563,VALID,23.1763,VALID,3,VALID,0,
2010-07-10, 02:27:05,VALID,1004.54,VALID,0,VALID,102.013,VALID,0.100563,VALID,23.1975,VALID,3,VALID,0,
2010-07-10, 02:28:05,VALID,1004.5,VALID,0,VALID,101.983,VALID,0,VALID,23.1763,VALID,3,VALID,0,
2010-07-10, 02:29:05,VALID,1004.49,VALID,0,VALID,101.998,VALID,0.100563,VALID,23.1975,VALID,3,VALID,0,
2010-07-10, 02:30:05,VALID,1004.52,VALID,0,VALID,101.968,VALID,0,VALID,23.1763,VALID,1,VALID,0,
2010-07-10, 02:31:05,VALID,1004.49,VALID,0,VALID,101.968,VALID,0.100563,VALID,23.1551,VALID,1,VALID,0,
2010-07-10, 02:32:05,VALID,1004.51,VALID,0,VALID,101.945,VALID,0.100563,VALID,23.1763,VALID,356,VALID,0,
2010-07-10, 02:33:05,VALID,1004.5,VALID,0,VALID,101.975,VALID,0.100563,VALID,23.1763,VALID,354,VALID,0,
2010-07-10, 02:34:05,VALID,1004.5,VALID,0,VALID,101.983,VALID,0,VALID,23.1356,VALID,353,VALID,0,
2010-07-10, 02:35:05,VALID,1004.5,VALID,0,VALID,101.983,VALID,0.100563,VALID,23.1162,VALID,353,VALID,0,
2010-07-10, 02:36:05,VALID,1004.5,VALID,0,VALID,101.922,VALID,0,VALID,23.1763,VALID,328,VALID,0.494141,
2010-07-10, 02:37:05,VALID,1004.51,VALID,0,VALID,101.907,VALID,0,VALID,23.2152,VALID,342,VALID,0.173828,
2010-07-10, 02:38:05,VALID,1004.46,VALID,0,VALID,101.853,VALID,0.100563,VALID,23.2347,VALID,335,VALID,0,
2010-07-10, 02:39:05,VALID,1004.47,VALID,0,VALID,101.792,VALID,0.100563,VALID,23.2931,VALID,357,VALID,0.611328,
2010-07-10, 02:40:05,VALID,1004.46,VALID,0,VALID,101.792,VALID,0.100563,VALID,23.332,VALID,338,VALID,0.310547,
2010-07-10, 02:41:05,VALID,1004.42,VALID,0,VALID,101.769,VALID,0.100563,VALID,23.3904,VALID,341,VALID,0.275,
2010-07-10, 02:42:05,VALID,1004.4,VALID,0,VALID,101.762,VALID,0,VALID,23.4098,VALID,341,VALID,0.453516,
2010-07-10, 02:43:05,VALID,1004.43,VALID,0,VALID,101.739,VALID,0.100563,VALID,23.4487,VALID,341,VALID,0.305859,
2010-07-10, 02:44:05,VALID,1004.41,VALID,0,VALID,101.739,VALID,0.100563,VALID,23.4877,VALID,346,VALID,0.339844,
2010-07-10, 02:45:05,VALID,1004.41,VALID,0,VALID,101.739,VALID,0,VALID,23.4859,VALID,346,VALID,0.385547,
2010-07-10, 02:46:05,VALID,1004.41,VALID,0,VALID,101.708,VALID,0,VALID,23.5266,VALID,346,VALID,0.219531,
2010-07-10, 02:47:05,VALID,1004.4,VALID,0,VALID,101.693,VALID,0.100563,VALID,23.5868,VALID,351,VALID,0.660547,
2010-07-10, 02:48:05,VALID,1004.42,VALID,0,VALID,101.662,VALID,0,VALID,23.6026,VALID,344,VALID,0.233984,
2010-07-10, 02:49:05,VALID,1004.4,VALID,0,VALID,101.708,VALID,0.100563,VALID,23.6239,VALID,345,VALID,0.507813,
2010-07-10, 02:50:05,VALID,1004.42,VALID,0,VALID,101.785,VALID,0,VALID,23.6062,VALID,345,VALID,0.246875,
2010-07-10, 02:51:05,VALID,1004.42,VALID,0,VALID,101.815,VALID,0,VALID,23.5868,VALID,345,VALID,0.466406,
2010-07-10, 02:52:05,VALID,1004.42,VALID,0,VALID,101.891,VALID,0.100563,VALID,23.5266,VALID,345,VALID,0.514844,
2010-07-10, 02:53:05,VALID,1004.39,VALID,0,VALID,101.991,VALID,0.100563,VALID,23.447,VALID,345,VALID,0.426953,
2010-07-10, 02:54:05,VALID,1004.38,VALID,0,VALID,102.013,VALID,0,VALID,23.4293,VALID,345,VALID,0.323828,
2010-07-10, 02:55:05,VALID,1004.37,VALID,0,VALID,102.059,VALID,0,VALID,23.4098,VALID,345,VALID,0.501562,
2010-07-10, 02:56:05,VALID,1004.36,VALID,0,VALID,102.044,VALID,0,VALID,23.4098,VALID,345,VALID,0.104297,
2010-07-10, 02:57:05,VALID,1004.32,VALID,0,VALID,102.113,VALID,0.100563,VALID,23.3709,VALID,345,VALID,0.449609,
2010-07-10, 02:58:05,VALID,1004.33,VALID,0,VALID,102.181,VALID,0.100563,VALID,23.3514,VALID,350,VALID,0.646875,
2010-07-10, 02:59:05,VALID,1004.31,VALID,0,VALID,102.128,VALID,0,VALID,23.3514,VALID,329,VALID,0.760156,
2010-07-10, 03:00:05,VALID,1004.31,VALID,0,VALID,102.059,VALID,0,VALID,23.4293,VALID,357,VALID,0.619141,
2010-07-10, 03:01:05,VALID,1004.29,VALID,0,VALID,101.975,VALID,0,VALID,23.5266,VALID,330,VALID,0.433984,
2010-07-10, 03:02:05,VALID,1004.28,VALID,0,VALID,101.922,VALID,0,VALID,23.5637,VALID,321,VALID,0.704297,
2010-07-10, 03:03:05,VALID,1004.27,VALID,0,VALID,101.937,VALID,0.100563,VALID,23.6434,VALID,342,VALID,0.0195313,
2010-07-10, 03:04:05,VALID,1004.26,VALID,0,VALID,101.929,VALID,0,VALID,23.6823,VALID,342,VALID,0.737891,
2010-07-10, 03:05:05,VALID,1004.22,VALID,0,VALID,101.922,VALID,0.100563,VALID,23.7212,VALID,338,VALID,0.472266,
2010-07-10, 03:06:05,VALID,1004.24,VALID,0,VALID,101.983,VALID,0.100563,VALID,23.7814,VALID,352,VALID,0.8,
2010-07-10, 03:07:05,VALID,1004.23,VALID,0,VALID,101.991,VALID,0,VALID,23.7796,VALID,343,VALID,0.771875,
2010-07-10, 03:08:05,VALID,1004.26,VALID,0,VALID,102.036,VALID,0,VALID,23.8185,VALID,330,VALID,0.348437,
2010-07-10, 03:09:05,VALID,1004.26,VALID,0,VALID,102.105,VALID,0.100563,VALID,23.8593,VALID,337,VALID,0.428516,
2010-07-10, 03:10:05,VALID,1004.28,VALID,0,VALID,102.151,VALID,0,VALID,23.8575,VALID,347,VALID,0.355859,
2010-07-10, 03:11:05,VALID,1004.29,VALID,0,VALID,102.242,VALID,0,VALID,23.838,VALID,356,VALID,0.362891,
2010-07-10, 03:12:05,VALID,1004.32,VALID,0,VALID,102.303,VALID,0,VALID,23.8982,VALID,327,VALID,0.676172,
2010-07-10, 03:13:05,VALID,1004.28,VALID,0,VALID,102.372,VALID,0,VALID,23.8964,VALID,341,VALID,0.687891,
2010-07-10, 03:14:05,VALID,1004.29,VALID,0,VALID,102.448,VALID,0.100563,VALID,23.914,VALID,3,VALID,0.678906,
2010-07-10, 03:15:05,VALID,1004.29,VALID,0,VALID,102.54,VALID,0.100563,VALID,23.9353,VALID,353,VALID,0.696094,
2010-07-10, 03:16:05,VALID,1004.27,VALID,0,VALID,102.647,VALID,0.100563,VALID,23.9353,VALID,354,VALID,0.299219,
2010-07-10, 03:17:05,VALID,1004.25,VALID,0,VALID,102.746,VALID,0,VALID,23.9548,VALID,358,VALID,0.455078,
2010-07-10, 03:18:05,VALID,1004.26,VALID,0,VALID,102.868,VALID,0.100563,VALID,23.9548,VALID,360,VALID,0.0945313,
2010-07-10, 03:19:05,VALID,1004.25,VALID,0,VALID,102.944,VALID,0,VALID,23.9955,VALID,341,VALID,0.584375,
2010-07-10, 03:20:05,VALID,1004.24,VALID,0,VALID,103.013,VALID,0,VALID,23.9937,VALID,357,VALID,0.816797,
2010-07-10, 03:21:05,VALID,1004.23,VALID,0,VALID,103.089,VALID,0,VALID,23.9919,VALID,351,VALID,0.723437,
2010-07-10, 03:22:05,VALID,1004.2,VALID,0,VALID,103.188,VALID,0,VALID,24.0132,VALID,348,VALID,0.00976563,
2010-07-10, 03:23:05,VALID,1004.18,VALID,0,VALID,103.226,VALID,0,VALID,24.0345,VALID,342,VALID,0.353906,
2010-07-10, 03:24:05,VALID,1004.16,VALID,0,VALID,103.265,VALID,0,VALID,24.0326,VALID,343,VALID,0.889453,
2010-07-10, 03:25:05,VALID,1004.18,VALID,0,VALID,103.341,VALID,0,VALID,24.0521,VALID,323,VALID,0.951953,
2010-07-10, 03:26:05,VALID,1004.13,VALID,0,VALID,103.348,VALID,0,VALID,24.0734,VALID,350,VALID,0.327734,
2010-07-10, 03:27:05,VALID,1004.12,VALID,0,VALID,103.341,VALID,0,VALID,24.0734,VALID,334,VALID,0.454688,
2010-07-10, 03:28:05,VALID,1004.12,VALID,0,VALID,103.333,VALID,0,VALID,24.0929,VALID,2,VALID,0.473828,
2010-07-10, 03:29:05,VALID,1004.18,VALID,0,VALID,103.326,VALID,0,VALID,24.0716,VALID,349,VALID,1.13633,
2010-07-10, 03:30:05,VALID,1004.16,VALID,0,VALID,103.303,VALID,0,VALID,24.091,VALID,344,VALID,0.108594,
2010-07-10, 03:31:05,VALID,1004.17,VALID,0,VALID,103.272,VALID,0,VALID,24.1105,VALID,349,VALID,0.368359,
2010-07-10, 03:32:04,VALID,1004.19,VALID,0,VALID,103.203,VALID,0,VALID,24.1105,VALID,354,VALID,0.466406,
2010-07-10, 03:33:04,VALID,1004.19,VALID,0,VALID,103.142,VALID,0,VALID,24.1105,VALID,348,VALID,0.555469,
2010-07-10, 03:34:04,VALID,1004.18,VALID,0,VALID,103.104,VALID,0,VALID,24.1123,VALID,348,VALID,0.0421875,
2010-07-10, 03:35:04,VALID,1004.19,VALID,0,VALID,103.051,VALID,0,VALID,24.0734,VALID,334,VALID,0.519922,
2010-07-10, 03:36:04,VALID,1004.2,VALID,0,VALID,103.013,VALID,0,VALID,24.0734,VALID,4,VALID,0.433594,
2010-07-10, 03:37:04,VALID,1004.2,VALID,0,VALID,103.005,VALID,0,VALID,24.0521,VALID,342,VALID,0.512109,
2010-07-10, 03:38:04,VALID,1004.2,VALID,0,VALID,102.967,VALID,0,VALID,24.0326,VALID,352,VALID,0.851172,
2010-07-10, 03:39:04,VALID,1004.2,VALID,0,VALID,102.929,VALID,0,VALID,24.0539,VALID,347,VALID,0.872656,
2010-07-10, 03:40:04,VALID,1004.21,VALID,0,VALID,102.906,VALID,0,VALID,24.0521,VALID,347,VALID,0.687109,
2010-07-10, 03:41:04,VALID,1004.23,VALID,0,VALID,102.868,VALID,0,VALID,24.0521,VALID,352,VALID,0.687891,
2010-07-10, 03:42:04,VALID,1004.22,VALID,0,VALID,102.799,VALID,0,VALID,24.0929,VALID,341,VALID,0.583203,
2010-07-10, 03:43:04,VALID,1004.23,VALID,0,VALID,102.738,VALID,0,VALID,24.0716,VALID,340,VALID,0.65,
2010-07-10, 03:44:04,VALID,1004.22,VALID,0,VALID,102.639,VALID,0,VALID,24.1105,VALID,347,VALID,0.757422,
2010-07-10, 03:45:04,VALID,1004.22,VALID,0,VALID,102.525,VALID,0.100563,VALID,24.1494,VALID,344,VALID,0.559375,
2010-07-10, 03:46:04,VALID,1004.25,VALID,0,VALID,102.463,VALID,0,VALID,24.1494,VALID,343,VALID,0.675,
2010-07-10, 03:47:04,VALID,1004.25,VALID,0,VALID,102.341,VALID,0,VALID,24.1689,VALID,341,VALID,0.787891,
2010-07-10, 03:48:04,VALID,1004.23,VALID,0,VALID,102.273,VALID,0,VALID,24.2078,VALID,350,VALID,0.769922,
2010-07-10, 03:49:04,VALID,1004.26,VALID,0,VALID,102.166,VALID,0,VALID,24.2291,VALID,352,VALID,0.826953,
2010-07-10, 03:50:04,VALID,1004.24,VALID,0,VALID,102.074,VALID,0,VALID,24.2468,VALID,349,VALID,0.192188,